Regional Weather Roundup
Issued by NWS Sioux Falls, SD

Home | Current Version | Previous Version | Graphics & Text | Print | Product List | Glossary Off
Versions: 1 2 3 4 5 6 7 8 9 10 11 12 13 14 15 16 17 18 19 20 21 22 23 24 25 26 27 28 29 30 31 32 33 34 35 36 37 38 39 40 41 42 43 44 45 46 47 48 49 50

000
ASUS43 KFSD 110402
RWRFSD

WEATHER ROUNDUP FOR SE SOUTH DAKOTA/SW MINNESOTA/NW IOWA
NATIONAL WEATHER SERVICE SIOUX FALLS SD
1000 PM CST SAT DEC 10 2016

NOTE: "FAIR" INDICATES FEW OR NO CLOUDS BELOW 12,000 FEET WITH NO
SIGNIFICANT WEATHER AND OR OBSTRUCTIONS TO VISIBILITY.


SDZ038>040-050-052>070-110500-
SOUTHEAST SOUTH DAKOTA

CITY           SKY/WX    TMP DP  RH WIND       PRES   REMARKS
BROOKINGS      LGT SNOW  10   7  85 E15       29.96F FOG     WCI  -6
CHAMBERLAIN    CLOUDY    22  20  93 E13       29.81F WCI  10
HURON          LGT SNOW  15  12  88 SE16G23   29.91F FOG     WCI  -1
MADISON        LGT SNOW  14  14 100 E15       29.94F WCI  -1
MITCHELL       CLOUDY    21  18  88 SE18      29.90F WCI   6
SIOUX FALLS    LGT SNOW  20  18  92 E13       29.95F FOG     WCI   7
WINNER         CLOUDY    23  19  85 E14       29.75F WCI  11
YANKTON        CLOUDY    23  18  80 E12       29.89F WCI  12
$$

MNZ071-072-080-081-089-090-097-098-110500-
SOUTHWEST MINNESOTA

CITY           SKY/WX    TMP DP  RH WIND       PRES   REMARKS
FAIRMONT       LGT SNOW  18  16  92 E12       30.07F FOG     WCI   5
JACKSON        LGT SNOW  18  14  86 E14       30.03F WCI   4
LUVERNE        LGT SNOW  19  18  93 E13       29.98F WCI   7
MARSHALL       LGT SNOW  12   9  87 E10       30.05F FOG     WCI  -1
MONTEVIDEO     LGT SNOW  10   9  92 SE13      30.11F WCI  -5
PIPESTONE      LGT SNOW  16  12  86 E14       29.96F WCI   1
REDWOOD FALLS  LGT SNOW  13   9  84 E10       30.10F VSB 3/4 WCI   0
TRACY          LGT SNOW  13  11  91 E9        30.04F WCI   1
WINDOM         LGT SNOW  16  12  86 MISG      30.03F
WORTHINGTON    LGT SNOW  17  14  88 E14       29.99F FOG     WCI   3
$$

IAZ001>003-012>014-020>022-031-032-NEZ013-014-SDZ071-110500-
NORTHWEST IOWA

CITY           SKY/WX    TMP DP  RH WIND       PRES   REMARKS
CHEROKEE       LGT SNOW  22  21  95 SE10G16   29.99F WCI  12
DENISON        CLOUDY    25  21  86 E9        29.95F WCI  15
ESTHERVILLE    LGT SNOW  19  18  95 E14       30.03F VSB 1   WCI   6
LE MARS        CLOUDY    25  21  86 E13G21    29.95F WCI  13
ORANGE CITY    LGT SNOW  21  19  93 SE10G16   29.95F WCI  10
SHELDON        LGT SNOW  21  21 100 SE16      29.96F WCI   7
SIOUX CITY     CLOUDY    28  20  71 SE15      29.94F WCI  16
SPENCER        LGT SNOW  21  18  88 SE9       30.00F FOG     WCI  11
STORM LAKE     LGT SNOW  21  19  93 SE14      29.98F VSB 1   WCI   8
$$

ABBREVIATIONS USED IN REMARKS
   TC - TEMPERATURE IN CELSIUS
  WCI - WIND CHILL INDEX
   HX - HEAT INDEX
  VSB - VISIBILITY





USA.gov is the U.S. government's official web portal to all federal, state and local government web resources and services.